EZS1431 LSGG-EGPH

Flight info

Callsign EZS1431
Flight time 1h 52m
Altitude 36000
Route SIROD Z124 IBABA DCT TUTAX DCT OBURO DCT OKRIX DCT CLM DCT KOPOR DCT VESAN DCT RATUK DCT SOVAT L613 LEHOC DCT INPIP
Aircraft A320/M-SDE2E3FGHIJ1RWXYZ/LB1

Departure

Time 2026-04-25 09:42
Airport Geneva International Airport (LSGG)

Arrival

Time 2026-04-25 11:34
Airport Edinburgh Airport (EGPH)
Time Latitude Longitude Altitude Speed Heading
2026-04-25 09:19 46.23503 6.11195 1404 ft 0 kts 135°
2026-04-25 09:35 46.23509 6.11187 1419 ft 4 kts 134°
2026-04-25 09:35 46.23526 6.11158 1401 ft 4 kts 122°
2026-04-25 09:36 46.23537 6.11124 1398 ft 4 kts 85°
2026-04-25 09:36 46.23533 6.11105 1395 ft 0 kts 46°
2026-04-25 09:38 46.23555 6.11138 1401 ft 11 kts 46°
2026-04-25 09:38 46.23619 6.11139 1397 ft 10 kts 315°
2026-04-25 09:38 46.23667 6.11071 1387 ft 9 kts 317°
2026-04-25 09:38 46.23739 6.11130 1381 ft 22 kts 47°
2026-04-25 09:39 46.23866 6.11315 1373 ft 27 kts 46°
2026-04-25 09:39 46.24005 6.11521 1371 ft 30 kts 45°
2026-04-25 09:39 46.24153 6.11738 1365 ft 29 kts 45°
2026-04-25 09:40 46.24436 6.12154 1370 ft 27 kts 45°
2026-04-25 09:40 46.24573 6.12345 1371 ft 27 kts 43°
2026-04-25 09:40 46.24709 6.12555 1363 ft 31 kts 46°
2026-04-25 09:40 46.24889 6.12706 1365 ft 29 kts 17°
2026-04-25 09:41 46.24999 6.12734 1370 ft 10 kts 337°
2026-04-25 09:41 46.25004 6.12659 1370 ft 14 kts 236°
2026-04-25 09:41 46.24805 6.12361 1372 ft 76 kts 225°
2026-04-25 09:41 46.24274 6.11584 1373 ft 135 kts 225°
2026-04-25 09:42 46.23520 6.10474 1442 ft 173 kts 225°
2026-04-25 09:42 46.22683 6.09242 2143 ft 169 kts 226°
2026-04-25 09:42 46.21961 6.07908 2777 ft 175 kts 248°
2026-04-25 09:42 46.21854 6.06115 3092 ft 196 kts 287°
2026-04-25 09:43 46.22720 6.04489 3396 ft 220 kts 332°
2026-04-25 09:43 46.24254 6.03908 3791 ft 243 kts 353°
2026-04-25 09:43 46.26020 6.03754 4317 ft 263 kts 358°
2026-04-25 09:43 46.27869 6.03730 5221 ft 268 kts 359°
2026-04-25 09:44 46.29745 6.03733 6171 ft 271 kts 359°
2026-04-25 09:44 46.31644 6.03720 7112 ft 274 kts 358°
2026-04-25 09:44 46.33565 6.03681 7996 ft 278 kts 358°
2026-04-25 09:44 46.35508 6.03619 8814 ft 281 kts 358°
2026-04-25 09:45 46.37472 6.03542 9620 ft 285 kts 357°
2026-04-25 09:45 46.39472 6.03457 10414 ft 289 kts 358°
2026-04-25 09:45 46.41553 6.03367 10779 ft 311 kts 358°
2026-04-25 09:45 46.43782 6.03266 11153 ft 327 kts 358°
2026-04-25 09:46 46.46078 6.03159 11839 ft 332 kts 358°
2026-04-25 09:46 46.48400 6.03050 12626 ft 335 kts 358°
2026-04-25 09:46 46.50739 6.02942 13408 ft 338 kts 358°
2026-04-25 09:46 46.53100 6.02836 14131 ft 341 kts 358°
2026-04-25 09:47 46.55477 6.02730 14796 ft 343 kts 358°
2026-04-25 09:47 46.57866 6.02624 15487 ft 344 kts 358°
2026-04-25 09:47 46.60265 6.02517 16173 ft 346 kts 358°
2026-04-25 09:47 46.62674 6.02410 16861 ft 347 kts 358°
2026-04-25 09:48 46.65098 6.02304 17558 ft 349 kts 358°
2026-04-25 09:48 46.67524 6.02076 18219 ft 351 kts 350°
2026-04-25 09:48 46.69862 6.01059 18804 ft 353 kts 336°
2026-04-25 09:48 46.71958 5.99180 19366 ft 357 kts 322°
2026-04-25 09:49 46.73675 5.96553 19929 ft 362 kts 308°
2026-04-25 09:49 46.74897 5.93314 20451 ft 369 kts 295°
2026-04-25 09:49 46.75796 5.89792 20977 ft 372 kts 294°
2026-04-25 09:49 46.76687 5.86244 21487 ft 373 kts 294°
2026-04-25 09:50 46.77582 5.82678 21982 ft 376 kts 294°
2026-04-25 09:50 46.78488 5.79092 22477 ft 378 kts 294°
2026-04-25 09:50 46.79400 5.75483 22962 ft 381 kts 294°
2026-04-25 09:50 46.80319 5.71840 23438 ft 383 kts 294°
2026-04-25 09:51 46.81239 5.68178 23879 ft 386 kts 294°
2026-04-25 09:51 46.82164 5.64479 24269 ft 389 kts 294°
2026-04-25 09:51 46.83088 5.60764 24652 ft 391 kts 293°
2026-04-25 09:51 46.84018 5.57019 25038 ft 393 kts 293°
2026-04-25 09:52 46.84954 5.53254 25417 ft 395 kts 293°
2026-04-25 09:52 46.85897 5.49468 25779 ft 398 kts 293°
2026-04-25 09:52 46.86832 5.45711 26137 ft 400 kts 293°
2026-04-25 09:52 46.87785 5.41875 26490 ft 403 kts 292°
2026-04-25 09:53 46.88751 5.38014 26852 ft 405 kts 293°
2026-04-25 09:53 46.89731 5.34144 27207 ft 407 kts 293°
2026-04-25 09:53 46.90722 5.30252 27542 ft 410 kts 293°
2026-04-25 09:53 46.91935 5.26490 27880 ft 409 kts 303°
2026-04-25 09:54 46.93578 5.23092 28218 ft 409 kts 312°
2026-04-25 09:54 46.95589 5.20146 28546 ft 411 kts 319°
2026-04-25 09:54 46.97723 5.17343 28883 ft 413 kts 319°
2026-04-25 09:54 46.99861 5.14521 29211 ft 415 kts 319°
2026-04-25 09:55 47.02014 5.11671 29537 ft 418 kts 319°
2026-04-25 09:55 47.04196 5.08776 29860 ft 420 kts 319°
2026-04-25 09:55 47.06343 5.05919 30159 ft 422 kts 318°
2026-04-25 09:55 47.08524 5.03007 30416 ft 425 kts 318°
2026-04-25 09:56 47.10708 5.00088 30668 ft 426 kts 318°
2026-04-25 09:56 47.12908 4.97144 30914 ft 428 kts 318°
2026-04-25 09:56 47.15116 4.94191 31148 ft 431 kts 318°
2026-04-25 09:56 47.17333 4.91230 31468 ft 430 kts 318°
2026-04-25 09:57 47.19546 4.88279 31821 ft 430 kts 317°
2026-04-25 09:57 47.21760 4.85326 32167 ft 429 kts 317°
2026-04-25 09:57 47.23967 4.82380 32501 ft 429 kts 317°
2026-04-25 09:57 47.26174 4.79424 32829 ft 429 kts 317°
2026-04-25 09:58 47.28374 4.76465 33164 ft 428 kts 317°
2026-04-25 09:58 47.30569 4.73507 33495 ft 428 kts 317°
2026-04-25 09:58 47.32765 4.70543 33846 ft 427 kts 316°
2026-04-25 09:58 47.34954 4.67585 34176 ft 427 kts 316°
2026-04-25 09:59 47.37143 4.64628 34471 ft 426 kts 316°
2026-04-25 09:59 47.38590 4.62672 34663 ft 426 kts 316°
2026-04-25 09:59 47.40774 4.59719 34947 ft 425 kts 316°
2026-04-25 09:59 47.42950 4.56772 35214 ft 425 kts 316°
2026-04-25 10:00 47.45126 4.53824 35486 ft 424 kts 316°
2026-04-25 10:00 47.47297 4.50877 35747 ft 424 kts 316°
2026-04-25 10:00 47.49464 4.47927 36006 ft 423 kts 316°
2026-04-25 10:00 47.52326 4.44031 36130 ft 421 kts 316°
2026-04-25 10:01 47.55919 4.39141 36137 ft 418 kts 316°
2026-04-25 10:01 47.60190 4.33310 36137 ft 417 kts 316°
2026-04-25 10:02 47.64430 4.27424 36140 ft 417 kts 312°
2026-04-25 10:02 47.67868 4.20553 36135 ft 416 kts 303°
2026-04-25 10:03 47.71106 4.13427 36148 ft 417 kts 303°
2026-04-25 10:03 47.74349 4.06295 36165 ft 416 kts 303°
2026-04-25 10:04 47.77567 3.99207 36155 ft 416 kts 303°
2026-04-25 10:04 47.80797 3.92052 36157 ft 417 kts 303°
2026-04-25 10:05 47.84017 3.84893 36153 ft 417 kts 303°
2026-04-25 10:05 47.87249 3.77717 36155 ft 417 kts 302°
2026-04-25 10:06 47.90472 3.70521 36146 ft 417 kts 302°
2026-04-25 10:06 47.93686 3.63321 36148 ft 417 kts 303°
2026-04-25 10:07 47.97638 3.56996 36153 ft 421 kts 322°
2026-04-25 10:07 48.02819 3.52913 36144 ft 424 kts 335°
2026-04-25 10:08 48.08277 3.49542 36156 ft 425 kts 335°
2026-04-25 10:08 48.13734 3.46135 36152 ft 425 kts 335°
2026-04-25 10:09 48.19193 3.42716 36160 ft 426 kts 335°
2026-04-25 10:09 48.24661 3.39306 36161 ft 426 kts 335°
2026-04-25 10:10 48.30135 3.35878 36161 ft 426 kts 335°
2026-04-25 10:10 48.35612 3.32436 36168 ft 426 kts 335°
2026-04-25 10:11 48.41086 3.28988 36174 ft 427 kts 335°
2026-04-25 10:11 48.46561 3.25539 36163 ft 426 kts 335°
2026-04-25 10:12 48.52031 3.22077 36166 ft 427 kts 335°
2026-04-25 10:13 48.60245 3.16869 36180 ft 427 kts 335°
2026-04-25 10:13 48.65719 3.13383 36176 ft 427 kts 335°
2026-04-25 10:14 48.71194 3.09900 36172 ft 427 kts 335°
2026-04-25 10:14 48.76629 3.06418 36175 ft 427 kts 335°
2026-04-25 10:15 48.82103 3.02898 36172 ft 427 kts 335°
2026-04-25 10:15 48.87426 2.98814 36169 ft 426 kts 328°
2026-04-25 10:16 48.92563 2.94323 36176 ft 426 kts 328°
2026-04-25 10:16 48.97665 2.89858 36179 ft 426 kts 328°
2026-04-25 10:17 49.02801 2.85356 36179 ft 426 kts 328°
2026-04-25 10:17 49.07940 2.80839 36185 ft 426 kts 328°
2026-04-25 10:18 49.13076 2.76303 36179 ft 426 kts 328°
2026-04-25 10:18 49.18208 2.71762 36183 ft 427 kts 328°
2026-04-25 10:19 49.23351 2.67205 36178 ft 427 kts 328°
2026-04-25 10:19 49.28492 2.62648 36183 ft 427 kts 328°
2026-04-25 10:20 49.33634 2.58079 36181 ft 427 kts 328°
2026-04-25 10:20 49.38770 2.53490 36187 ft 427 kts 328°
2026-04-25 10:21 49.43907 2.48887 36184 ft 428 kts 328°
2026-04-25 10:21 49.49046 2.44275 36189 ft 428 kts 328°
2026-04-25 10:22 49.54535 2.40731 36188 ft 430 kts 342°
2026-04-25 10:22 49.60283 2.38157 36188 ft 431 kts 341°
2026-04-25 10:23 49.66032 2.35540 36193 ft 431 kts 341°
2026-04-25 10:23 49.71777 2.32903 36193 ft 430 kts 341°
2026-04-25 10:24 49.77518 2.30268 36199 ft 430 kts 341°
2026-04-25 10:24 49.83261 2.27646 36205 ft 430 kts 341°
2026-04-25 10:25 49.89007 2.25028 36201 ft 430 kts 341°
2026-04-25 10:25 49.94750 2.22390 36202 ft 430 kts 341°
2026-04-25 10:26 50.00487 2.19736 36202 ft 430 kts 341°
2026-04-25 10:26 50.06224 2.17077 36201 ft 430 kts 341°
2026-04-25 10:27 50.11955 2.14418 36199 ft 430 kts 341°
2026-04-25 10:27 50.17653 2.11774 36210 ft 430 kts 341°
2026-04-25 10:28 50.23423 2.09087 36205 ft 430 kts 341°
2026-04-25 10:28 50.29155 2.06408 36209 ft 430 kts 341°
2026-04-25 10:29 50.34863 2.03618 36208 ft 428 kts 335°
2026-04-25 10:29 50.39907 1.98975 36215 ft 422 kts 317°
2026-04-25 10:30 50.44335 1.92947 36207 ft 421 kts 316°
2026-04-25 10:30 50.48758 1.86900 36212 ft 422 kts 316°
2026-04-25 10:31 50.53190 1.80844 36211 ft 422 kts 316°
2026-04-25 10:31 50.57606 1.74771 36213 ft 422 kts 316°
2026-04-25 10:32 50.62026 1.68694 36210 ft 422 kts 316°
2026-04-25 10:32 50.66444 1.62608 36216 ft 422 kts 316°
2026-04-25 10:33 50.70854 1.56507 36214 ft 422 kts 316°
2026-04-25 10:33 50.75257 1.50399 36220 ft 422 kts 316°
2026-04-25 10:34 50.79664 1.44286 36223 ft 422 kts 316°
2026-04-25 10:34 50.84066 1.38161 36230 ft 422 kts 316°
2026-04-25 10:35 50.88464 1.32011 36231 ft 422 kts 315°
2026-04-25 10:35 50.92852 1.25855 36236 ft 422 kts 315°
2026-04-25 10:36 50.97215 1.19724 36237 ft 422 kts 315°
2026-04-25 10:36 51.01604 1.13545 36238 ft 422 kts 315°
2026-04-25 10:37 51.05995 1.07368 36237 ft 422 kts 317°
2026-04-25 10:37 51.10798 1.01924 36237 ft 424 kts 322°
2026-04-25 10:38 51.15646 0.96568 36239 ft 425 kts 322°
2026-04-25 10:38 51.20498 0.91192 36238 ft 425 kts 322°
2026-04-25 10:39 51.25338 0.85804 36245 ft 425 kts 321°
2026-04-25 10:39 51.30182 0.80401 36248 ft 425 kts 321°
2026-04-25 10:40 51.35028 0.74986 36287 ft 425 kts 322°
2026-04-25 10:40 51.39847 0.69579 36236 ft 422 kts 322°
2026-04-25 10:41 51.44656 0.64172 36231 ft 422 kts 322°
2026-04-25 10:41 51.49448 0.58775 36230 ft 423 kts 322°
2026-04-25 10:42 51.54260 0.53336 36229 ft 424 kts 322°
2026-04-25 10:42 51.59083 0.47863 36230 ft 424 kts 322°
2026-04-25 10:43 51.63906 0.42381 36229 ft 425 kts 322°
2026-04-25 10:43 51.68732 0.36890 36227 ft 425 kts 322°
2026-04-25 10:44 51.73556 0.31395 36231 ft 425 kts 322°
2026-04-25 10:44 51.78380 0.25878 36233 ft 425 kts 322°
2026-04-25 10:45 51.83185 0.20357 36238 ft 425 kts 322°
2026-04-25 10:45 51.88026 0.14770 36237 ft 426 kts 322°
2026-04-25 10:46 51.92846 0.09204 36238 ft 426 kts 322°
2026-04-25 10:46 51.97673 0.03619 36233 ft 426 kts 322°
2026-04-25 10:47 52.01677 -0.01031 36228 ft 426 kts 322°
2026-04-25 10:47 52.06842 -0.05814 36222 ft 428 kts 329°
2026-04-25 10:48 52.12098 -0.10398 36220 ft 429 kts 329°
2026-04-25 10:48 52.17357 -0.15003 36213 ft 429 kts 329°
2026-04-25 10:49 52.22612 -0.19626 36217 ft 429 kts 329°
2026-04-25 10:49 52.27856 -0.24265 36211 ft 429 kts 329°
2026-04-25 10:50 52.33109 -0.28912 36212 ft 429 kts 329°
2026-04-25 10:50 52.38365 -0.33572 36214 ft 429 kts 329°
2026-04-25 10:51 52.43616 -0.38246 36209 ft 430 kts 329°
2026-04-25 10:51 52.48866 -0.42926 36206 ft 430 kts 329°
2026-04-25 10:52 52.54121 -0.47624 36208 ft 430 kts 329°
2026-04-25 10:52 52.59375 -0.52332 36208 ft 430 kts 329°
2026-04-25 10:53 52.64617 -0.57054 36207 ft 430 kts 328°
2026-04-25 10:53 52.69867 -0.61797 36206 ft 430 kts 329°
2026-04-25 10:54 52.75116 -0.66538 36209 ft 430 kts 329°
2026-04-25 10:54 52.80358 -0.71298 36212 ft 430 kts 329°
2026-04-25 10:55 52.85602 -0.76061 36212 ft 430 kts 329°
2026-04-25 10:55 52.90840 -0.80839 36211 ft 430 kts 329°
2026-04-25 10:56 52.96073 -0.85628 36211 ft 430 kts 329°
2026-04-25 10:56 53.01301 -0.90428 36208 ft 429 kts 329°
2026-04-25 10:57 53.06528 -0.95231 36207 ft 429 kts 329°
2026-04-25 10:57 53.11755 -1.00036 36206 ft 429 kts 329°
2026-04-25 10:58 53.16976 -1.04869 36206 ft 429 kts 328°
2026-04-25 10:58 53.22196 -1.09708 36205 ft 429 kts 329°
2026-04-25 10:59 53.27414 -1.14552 36203 ft 429 kts 328°
2026-04-25 10:59 53.32629 -1.19415 36200 ft 429 kts 328°
2026-04-25 11:00 53.37835 -1.24288 36207 ft 429 kts 328°
2026-04-25 11:00 53.43039 -1.29169 36198 ft 429 kts 328°
2026-04-25 11:01 53.48244 -1.34059 36203 ft 429 kts 328°
2026-04-25 11:01 53.53450 -1.38971 36202 ft 429 kts 328°
2026-04-25 11:02 53.58612 -1.43856 36209 ft 428 kts 328°
2026-04-25 11:02 53.63837 -1.48816 36203 ft 429 kts 328°
2026-04-25 11:03 53.68992 -1.53733 36199 ft 428 kts 328°
2026-04-25 11:03 53.74060 -1.58990 36205 ft 426 kts 319°
2026-04-25 11:04 53.78463 -1.65658 36201 ft 425 kts 316°
2026-04-25 11:04 53.82850 -1.72398 36214 ft 426 kts 316°
2026-04-25 11:05 53.87237 -1.79147 36199 ft 426 kts 316°
2026-04-25 11:05 53.91616 -1.85907 36199 ft 426 kts 316°
2026-04-25 11:06 53.95993 -1.92696 36199 ft 426 kts 315°
2026-04-25 11:06 54.00361 -1.99503 36198 ft 426 kts 316°
2026-04-25 11:07 54.05248 -2.05255 36199 ft 429 kts 328°
2026-04-25 11:07 54.10554 -2.09902 36198 ft 431 kts 338°
2026-04-25 11:08 54.15978 -2.14186 36195 ft 430 kts 331°
2026-04-25 11:08 54.21317 -2.18825 36196 ft 430 kts 331°
2026-04-25 11:09 54.26651 -2.23502 36163 ft 432 kts 331°
2026-04-25 11:09 54.29339 -2.25864 35591 ft 435 kts 331°
2026-04-25 11:09 54.32021 -2.28223 35066 ft 432 kts 331°
2026-04-25 11:09 54.34688 -2.30570 34551 ft 430 kts 330°
2026-04-25 11:10 54.37343 -2.32907 33995 ft 428 kts 330°
2026-04-25 11:10 54.39089 -2.34446 33644 ft 426 kts 330°
2026-04-25 11:10 54.42601 -2.37545 32968 ft 421 kts 330°
2026-04-25 11:10 54.45188 -2.39829 32464 ft 418 kts 331°
2026-04-25 11:11 54.47769 -2.42112 31971 ft 415 kts 331°
2026-04-25 11:11 54.50325 -2.44379 31481 ft 412 kts 331°
2026-04-25 11:11 54.52867 -2.46640 31002 ft 409 kts 331°
2026-04-25 11:11 54.55385 -2.48886 30533 ft 407 kts 331°
2026-04-25 11:12 54.57892 -2.51122 30023 ft 404 kts 331°
2026-04-25 11:12 54.60346 -2.53308 29570 ft 400 kts 332°
2026-04-25 11:12 54.62808 -2.55505 29120 ft 396 kts 332°
2026-04-25 11:12 54.65243 -2.57682 28700 ft 392 kts 332°
2026-04-25 11:13 54.67652 -2.59838 28264 ft 388 kts 332°
2026-04-25 11:13 54.70039 -2.61977 27838 ft 385 kts 332°
2026-04-25 11:13 54.72406 -2.64100 27411 ft 381 kts 332°
2026-04-25 11:13 54.74751 -2.66205 26966 ft 378 kts 332°
2026-04-25 11:14 54.77084 -2.68303 26532 ft 376 kts 332°
2026-04-25 11:14 54.79395 -2.70389 26094 ft 374 kts 332°
2026-04-25 11:14 54.81702 -2.72472 25646 ft 372 kts 332°
2026-04-25 11:14 54.83990 -2.74537 25192 ft 371 kts 332°
2026-04-25 11:15 54.86282 -2.76607 24727 ft 370 kts 332°
2026-04-25 11:15 54.88563 -2.78672 24257 ft 369 kts 332°
2026-04-25 11:15 54.90838 -2.80740 23786 ft 369 kts 332°
2026-04-25 11:15 54.93102 -2.82801 23262 ft 368 kts 332°
2026-04-25 11:16 54.97577 -2.86881 22337 ft 362 kts 332°
2026-04-25 11:16 54.99807 -2.88912 21892 ft 360 kts 332°
2026-04-25 11:16 55.02020 -2.90927 21451 ft 358 kts 332°
2026-04-25 11:17 55.04228 -2.92940 21011 ft 356 kts 332°
2026-04-25 11:17 55.06422 -2.94947 20562 ft 355 kts 332°
2026-04-25 11:17 55.08603 -2.96950 20137 ft 354 kts 332°
2026-04-25 11:17 55.10774 -2.98945 19705 ft 353 kts 332°
2026-04-25 11:18 55.12941 -3.00934 19272 ft 351 kts 331°
2026-04-25 11:18 55.15101 -3.02912 18843 ft 350 kts 331°
2026-04-25 11:18 55.17255 -3.04889 18403 ft 349 kts 331°
2026-04-25 11:18 55.19401 -3.06865 17958 ft 347 kts 331°
2026-04-25 11:19 55.21532 -3.08834 17534 ft 345 kts 331°
2026-04-25 11:19 55.23640 -3.10789 17121 ft 342 kts 331°
2026-04-25 11:19 55.25735 -3.12732 16718 ft 340 kts 331°
2026-04-25 11:19 55.27821 -3.14667 16313 ft 338 kts 331°
2026-04-25 11:20 55.29890 -3.16585 15919 ft 336 kts 331°
2026-04-25 11:20 55.31949 -3.18494 15587 ft 332 kts 331°
2026-04-25 11:20 55.33993 -3.20390 15207 ft 330 kts 331°
2026-04-25 11:20 55.36016 -3.22276 14816 ft 329 kts 331°
2026-04-25 11:21 55.38023 -3.24152 14450 ft 327 kts 331°
2026-04-25 11:21 55.40023 -3.26023 14170 ft 322 kts 331°
2026-04-25 11:21 55.41973 -3.27848 13593 ft 317 kts 331°
2026-04-25 11:21 55.43878 -3.29627 13294 ft 300 kts 331°
2026-04-25 11:22 55.45687 -3.31317 13197 ft 288 kts 331°
2026-04-25 11:22 55.46847 -3.32404 13131 ft 283 kts 331°
2026-04-25 11:22 55.49130 -3.34545 12965 ft 272 kts 331°
2026-04-25 11:22 55.50655 -3.36345 12765 ft 267 kts 320°
2026-04-25 11:23 55.52111 -3.38477 12357 ft 270 kts 320°
2026-04-25 11:23 55.53540 -3.40593 11995 ft 273 kts 319°
2026-04-25 11:23 55.54994 -3.42760 11626 ft 274 kts 319°
2026-04-25 11:23 55.56475 -3.44964 11257 ft 275 kts 319°
2026-04-25 11:24 55.57920 -3.47118 10893 ft 276 kts 319°
2026-04-25 11:24 55.59390 -3.49308 10528 ft 277 kts 319°
2026-04-25 11:24 55.60860 -3.51505 10161 ft 277 kts 319°
2026-04-25 11:24 55.62357 -3.53743 9756 ft 277 kts 319°
2026-04-25 11:25 55.63807 -3.55912 9379 ft 276 kts 319°
2026-04-25 11:25 55.65276 -3.58110 9018 ft 276 kts 319°
2026-04-25 11:25 55.66740 -3.60300 8654 ft 275 kts 319°
2026-04-25 11:25 55.68201 -3.62489 8288 ft 275 kts 319°
2026-04-25 11:26 55.69664 -3.64673 7926 ft 274 kts 319°
2026-04-25 11:26 55.71132 -3.66817 7566 ft 271 kts 319°
2026-04-25 11:26 55.72558 -3.68877 7217 ft 260 kts 319°
2026-04-25 11:26 55.73957 -3.70896 6867 ft 258 kts 319°
2026-04-25 11:27 55.75342 -3.72902 6517 ft 256 kts 318°
2026-04-25 11:27 55.76654 -3.75020 6171 ft 253 kts 314°
2026-04-25 11:27 55.77943 -3.77109 5857 ft 250 kts 325°
2026-04-25 11:27 55.78999 -3.77898 5669 ft 250 kts 348°
2026-04-25 11:28 55.81198 -3.76953 5271 ft 252 kts 38°
2026-04-25 11:28 55.82307 -3.74563 4986 ft 251 kts 58°
2026-04-25 11:28 55.83202 -3.71895 4612 ft 251 kts 58°
2026-04-25 11:28 55.84088 -3.69273 4193 ft 246 kts 58°
2026-04-25 11:29 55.84952 -3.66695 3789 ft 233 kts 58°
2026-04-25 11:29 55.85758 -3.64328 3495 ft 217 kts 58°
2026-04-25 11:29 55.86526 -3.62088 3216 ft 205 kts 58°
2026-04-25 11:29 55.87243 -3.59998 2931 ft 191 kts 59°
2026-04-25 11:30 55.87915 -3.58037 2675 ft 180 kts 59°
2026-04-25 11:30 55.88551 -3.56178 2434 ft 171 kts 59°
2026-04-25 11:30 55.89153 -3.54418 2208 ft 162 kts 60°
2026-04-25 11:30 55.89726 -3.52740 1991 ft 155 kts 60°
2026-04-25 11:31 55.90272 -3.51140 1780 ft 148 kts 60°
2026-04-25 11:31 55.90622 -3.50116 1649 ft 144 kts 61°
2026-04-25 11:31 55.91134 -3.48615 1453 ft 140 kts 61°
2026-04-25 11:31 55.91805 -3.46646 1186 ft 138 kts 61°
2026-04-25 11:32 55.92132 -3.45683 1066 ft 137 kts 62°
2026-04-25 11:32 55.92626 -3.44233 864 ft 137 kts 60°
2026-04-25 11:32 55.93118 -3.42786 685 ft 136 kts 60°
2026-04-25 11:32 55.93233 -3.42449 645 ft 136 kts 59°
2026-04-25 11:33 55.93293 -3.42270 630 ft 136 kts 60°
2026-04-25 11:33 55.93786 -3.40817 413 ft 136 kts 60°
2026-04-25 11:33 55.94266 -3.39372 277 ft 136 kts 55°
2026-04-25 11:34 55.94761 -3.37949 124 ft 132 kts 58°
2026-04-25 11:34 55.95169 -3.36749 113 ft 90 kts 59°
2026-04-25 11:34 55.95405 -3.36059 111 ft 43 kts 60°
2026-04-25 11:34 55.95539 -3.35652 112 ft 35 kts 60°
2026-04-25 11:35 55.95543 -3.35488 114 ft 11 kts 148°
2026-04-25 11:35 55.95485 -3.35425 113 ft 10 kts 148°
2026-04-25 11:35 55.95421 -3.35436 113 ft 10 kts 230°
2026-04-25 11:35 55.95387 -3.35535 115 ft 9 kts 239°
2026-04-25 11:36 55.95355 -3.35631 115 ft 9 kts 239°
2026-04-25 11:36 55.95326 -3.35719 114 ft 8 kts 239°
2026-04-25 11:36 55.95299 -3.35797 113 ft 7 kts 239°
2026-04-25 11:36 55.95275 -3.35867 113 ft 7 kts 237°
2026-04-25 11:37 55.95250 -3.35938 114 ft 7 kts 238°
2026-04-25 11:37 55.95183 -3.35966 113 ft 18 kts 144°
2026-04-25 11:37 55.95101 -3.35812 114 ft 15 kts 123°
2026-04-25 11:37 55.95012 -3.35833 114 ft 12 kts 214°
2026-04-25 11:38 55.94980 -3.35886 116 ft 6 kts 221°
2026-04-25 11:38 55.94963 -3.35958 115 ft 6 kts 255°
2026-04-25 11:38 55.94955 -3.36014 116 ft 3 kts 256°
2026-04-25 11:38 55.94953 -3.36035 112 ft 1 kts 257°
2026-04-25 11:39 55.94951 -3.36038 113 ft 2 kts 249°